AirNav   Air Wisconsin pilot careers
 
 409 users online  

AL84 Pecan Ponds Farm Airport
Robertsdale, Alabama, USA

GOING TO ROBERTSDALE?


FAA INFORMATION EFFECTIVE 28 MARCH 2019

Location

FAA Identifier: AL84
Lat/Long: 30-33-30.6970N / 087-36-14.9450W
30-33.511617N / 087-36.249083W
30.5585269 / -87.6041514
(estimated)
Elevation: 125 ft. / 38 m (estimated)
Variation: 01E (1985)
From city: 9 miles E of ROBERTSDALE, AL
Time zone: UTC -5 (UTC -6 during Standard Time)
Zip code: 36567

Airport Operations

Airport use: Private use. Permission required prior to landing
Activation date: 08/1988
Control tower: no
ARTCC: JACKSONVILLE CENTER
FSS: ANNISTON FLIGHT SERVICE STATION
Attendance: UNATNDD
Wind indicator: yes
Segmented circle: yes

Airport Communications

WX AWOS-3PT at CQF (15 nm SW): 118.425 (251-928-3242)
WX AWOS-3PT at JKA (17 nm S): 134.525 (251-968-7581)

Nearby radio navigation aids

VOR radial/distance  VOR name  Freq  Var
NUNr289/(14.8)SAUFLEY VOR108.8001E
BFMr094/23.5BROOKLEY VORTAC112.8004E

 
NDB name  Hdg/Dist  Freq  Var  ID
PICKENS290/23.232602WPKZ .--. -.- --..
WISLE110/38.124801WMOB -- --- -...

Airport Services

Runway Information

Runway 9/27

Dimensions: 2750 x 140 ft. / 838 x 43 m
Surface: turf
RUNWAY 9  RUNWAY 27
Traffic pattern: rightleft

Airport Ownership and Management from official FAA records

Ownership: Privately-owned
Owner: SHELIA DAVIDSON
26550 HIGHWAY 90
ROBERTSDALE, AL 36567
Phone (850) 380-4841

Airport Operational Statistics

Aircraft based on the field: 2
Single engine airplanes: 2
    

Additional Remarks

AIRSTRIP NOT IN USE AT THIS TIME.

Instrument Procedures

There are no published instrument procedures at AL84.

Some nearby airports with instrument procedures:

5R4 - Foley Municipal Airport (9 nm SW)
KCQF - H L Sonny Callahan Airport (15 nm SW)
KJKA - Jack Edwards National Airport (17 nm S)
KNPA - Pensacola Naval Air Station/Forrest Sherman Field (19 nm SE)
1R8 - Bay Minette Municipal Airport (22 nm NW)
 
Loc | Ops | Rwys | IFR | FBO | Links
Com | Nav | Svcs | Stats | Notes

Continental Motors
AirBoss

 
Area around AL84 (Pecan Ponds Farm Airport)
 
Road maps at: MapQuest Bing Google
 
Aerial photo
No photo
 
Sectional chart

 
Airport distance calculator
Flying to Pecan Ponds Farm Airport? Find the distance to fly.

From to AL84

Sunrise and sunset
Times for 23-Apr-2019
 Local
(UTC-5)
 Zulu
(UTC)
Morning civil twilight05:5010:50
Sunrise06:1511:15
Sunset19:2200:22
Evening civil twilight19:4700:47

Current date and time
Zulu (UTC)  23-Apr-2019 09:55:35
Local (UTC-5)  23-Apr-2019 04:55:35
 
METAR
KCQF 
15nm SW 
230935Z AUTO 00000KT 10SM CLR 09/09 A3011 RMK AO2
KJKA 
17nm S 
230935Z AUTO 00000KT 4SM BR CLR 10/10 A3010 RMK AO2 T01000100
KNPA 
19nm SE 
230856Z AUTO 00000KT 10SM CLR 11/11 A3010 RMK AO2 SLP193 T01060106 56012 $
KPNS 
22nm E 
230853Z AUTO 00000KT 10SM CLR 14/13 A3010 RMK AO2 SLP194 T01440133 56012
KBFM 
24nm W 
230853Z 28003KT 10SM CLR 12/12 A3012 RMK AO2 SLP197 T01170117 56010
TAF
KNPA 
19nm SE 
2307/2407 VRB04KT 9999 SCT180 QNH3007INS BECMG 2320/2322 17009KT 9999 FEW20 QNH3010INS BECMG 2403/2405 VRB05KT 9999 FEW180 BKN250 QNH3001INS AUTOMATED SENSOR METWATCH 2307 TIL 2311 T10/2309Z T24/2323Z COR0735 FN00210
KPNS 
22nm E 
230520Z 2306/2406 00000KT P6SM SKC FM231600 12006KT P6SM SCT250
KBFM 
24nm W 
230520Z 2306/2406 25003KT P6SM SCT250 FM231600 12006KT P6SM SCT250
NOTAMs
Click for the latest NOTAMs
NOTAMs are issued by the DoD/FAA and will open in a separate window not controlled by AirNav.

 

 
 

Would you like to see your business listed on this page?

 If your business provides an interesting product or service to pilots, flight crews, aircraft, or users of the Pecan Ponds Farm Airport, you should consider listing it here.  To start the listing process, click on the button below
 
Add a business
 

Other Pages about Pecan Ponds Farm Airport

Update a link
 
Copyright © AirNav, LLC. All rights reserved. Privacy Policy  Contact